Probability
2 3 3 1 0 0 0 1 3 7 9 7 3 1 0 0 0 0 0 0 0 0 0 0 0 0 0 0 0 0 0 0 0 0 0 0 0 0 0 0 0 0 0
3 4 4 1 0 1 2 4 9 12 14 12 9 6 4 2 1 0 0 0 0 0 0 0 0 0 0 0 0 0 0 0 0 0 0 0 0 0 0 0 0 0 0
7 5 3 1 1 2 6 13 20 25 25 23 19 14 10 7 4 1 0 0 0 0 0 0 0 0 0 0 0 0 0 0 0 0 0 0 0 0 0 0 0 0 0
8 6 2 0 1 3 10 23 35 41 41 37 31 23 15 10 5 1 0 0 0 0 0 0 0 0 0 0 0 0 0 0 0 0 0 0 0 0 0 0 0 0 0
7 5 3 2 1 3 12 28 45 54 53 48 41 29 17 9 4 1 0 0 0 0 0 0 0 0 0 0 0 0 0 0 0 0 0 0 0 0 0 0 0 0 0
4 4 4 4 3 4 10 26 45 55 55 50 42 30 17 7 3 1 0 0 0 0 0 0 0 0 0 0 0 0 0 0 0 0 0 0 0 0 0 0 0 0 0
3 3 5 6 4 3 6 19 37 49 51 47 39 28 17 9 5 3 1 0 0 0 0 0 0 0 0 0 0 0 0 0 0 0 0 0 0 0 0 0 0 0 0
2 3 5 5 4 2 2 11 25 36 40 39 33 24 17 12 8 5 2 1 0 0 0 0 0 0 0 1 1 0 0 0 0 0 0 0 0 0 0 0 0 0 0
2 3 4 4 2 1 2 6 14 22 25 26 23 18 14 12 9 5 2 1 0 0 0 0 0 0 0 1 2 1 0 0 0 0 0 0 0 0 0 0 0 0 0
4 4 4 3 2 1 1 3 7 11 14 14 13 11 10 7 5 3 2 1 1 0 0 0 0 0 0 1 1 1 0 0 0 0 1 3 3 1 0 0 1 1 1
11 8 4 3 2 1 0 1 2 5 7 7 6 6 4 2 1 1 1 1 1 0 0 0 0 0 0 0 0 0 0 0 0 0 3 8 7 3 1 0 1 1 1
21 13 6 3 2 1 0 0 0 2 3 2 2 2 1 0 0 0 0 1 0 0 0 0 0 0 0 0 0 0 0 0 0 1 5 11 10 5 2 1 2 2 1
26 17 8 4 3 1 0 1 1 2 2 2 2 2 1 1 0 0 0 1 0 0 0 0 0 0 0 0 0 0 0 0 1 2 6 10 9 6 4 3 3 3 2
28 20 10 6 5 3 3 4 5 5 4 4 5 5 4 3 1 0 1 1 0 0 0 0 0 0 0 0 0 0 0 1 2 3 7 11 11 8 6 5 5 4 4
31 24 15 11 10 11 12 12 11 9 7 7 9 7 6 4 3 3 4 4 2 0 0 0 0 1 1 0 1 1 1 2 3 4 8 12 13 10 7 5 5 5 5
32 28 22 18 18 23 25 22 18 14 11 11 10 9 7 7 7 7 8 8 5 2 1 1 2 3 4 3 4 5 5 5 5 6 6 8 10 9 7 5 4 4 5
34 32 29 24 24 29 31 29 24 17 13 13 12 10 8 10 13 13 11 10 10 9 8 9 10 12 12 11 11 11 10 8 8 7 5 5 6 8 8 7 5 5 6
36 38 35 29 28 31 33 33 30 25 19 16 15 14 12 13 18 20 18 18 21 22 21 21 23 24 22 20 17 15 12 9 7 5 4 4 6 7 8 9 8 9 9
42 43 42 37 35 37 39 41 41 38 31 27 26 26 24 22 25 28 29 31 35 38 37 36 37 37 32 27 20 14 9 6 3 3 3 4 4 5 6 7 9 10 10
48 49 49 49 50 51 54 56 56 51 46 44 43 41 39 37 37 39 41 44 48 52 48 44 43 41 35 28 19 12 7 4 3 3 4 4 3 2 3 6 8 9 8
50 53 56 60 65 67 69 71 69 63 59 56 51 48 47 46 46 48 48 51 54 54 48 42 39 34 28 24 19 14 9 6 4 4 4 4 3 2 2 5 8 8 7
53 57 61 67 74 77 78 78 76 70 62 54 47 42 41 42 43 44 44 44 44 43 38 35 32 26 20 16 16 14 10 6 4 3 2 3 2 2 1 3 5 5 5
57 60 64 71 77 81 83 81 77 70 59 46 36 30 27 28 30 29 27 27 26 26 24 24 22 20 15 11 9 8 6 5 4 2 1 1 1 1 0 0 1 2 2
56 60 66 72 76 78 79 77 72 62 50 38 26 18 15 15 16 15 12 12 12 11 11 10 10 10 9 6 2 1 2 3 3 3 2 1 0 0 0 0 0 0 0
47 52 60 66 67 66 66 64 57 45 36 27 17 11 8 7 7 6 4 3 3 3 3 3 3 3 2 2 0 0 0 1 1 2 2 1 0 0 0 0 0 0 0
37 43 53 58 57 55 54 52 44 33 25 19 11 7 4 2 2 2 1 0 0 0 0 1 1 0 0 0 0 0 0 0 0 1 1 0 0 0 0 0 0 0 0
Wind_Speed
14 18 18 13 11 12 15 17 17 17 17 17 17 16 15 14 13 12 12 12 11 11 11 12 12 12 12 12 12 12 12 12 12 12 12 12 12 12 12 11 10 12 13
17 19 18 13 12 13 15 17 18 17 17 17 17 16 15 14 13 12 12 11 11 11 12 12 12 12 12 12 12 11 11 11 11 12 12 12 11 11 9 6 4 12 11
18 20 19 14 13 14 15 16 18 18 18 18 17 16 15 14 13 12 12 11 11 11 12 12 12 12 11 11 11 10 10 9 10 10 10 10 11 10 8 7 11 13 11
19 19 19 16 13 14 15 16 17 19 19 18 18 17 16 14 13 12 12 12 11 11 11 11 11 11 10 10 10 9 9 8 8 8 7 8 10 11 9 9 10 10 10
18 18 18 17 15 15 15 16 17 18 18 18 18 17 15 14 13 12 12 12 11 11 11 11 11 10 9 9 8 8 8 7 6 9 6 7 8 10 9 9 9 9 9
18 18 19 17 16 15 15 15 16 17 17 17 17 16 15 14 12 12 12 12 11 11 10 10 10 9 8 8 7 6 6 6 9 5 6 6 9 10 8 9 8 8 8
18 17 20 16 15 15 16 16 16 16 15 15 15 15 14 12 11 11 11 11 10 10 10 10 9 8 7 6 6 5 5 5 8 5 5 5 9 10 8 8 8 8 8
18 18 19 17 16 16 15 15 14 14 14 14 14 13 12 11 11 11 10 10 10 10 9 9 8 7 6 5 5 4 4 7 6 4 4 5 11 8 8 8 8 7 7
17 17 18 18 17 15 13 13 13 13 13 13 13 13 12 11 11 11 10 10 9 9 9 8 7 6 5 4 4 3 3 6 8 4 5 4 10 8 8 8 8 8 7
16 17 18 17 17 16 16 14 14 13 13 13 13 13 13 12 11 10 10 9 9 8 8 7 6 5 4 4 3 3 3 7 9 5 4 7 10 9 8 8 8 8 8
15 15 16 17 16 16 15 15 15 14 13 13 13 13 12 11 11 10 8 9 8 7 7 6 6 5 5 6 5 4 6 8 6 4 3 11 9 9 9 9 9 9 8
18 17 15 16 16 15 12 13 11 12 12 12 11 12 10 7 5 6 11 8 7 7 7 6 6 7 9 7 9 8 7 7 5 4 5 10 8 9 9 9 9 9 9
18 16 15 15 14 14 11 11 8 7 9 10 11 11 7 6 6 5 6 8 8 9 8 9 9 7 6 3 4 6 5 5 4 4 6 10 8 9 10 10 9 9 9
18 17 16 15 13 13 11 9 9 7 7 8 9 10 8 5 5 5 4 5 5 5 4 5 4 4 5 5 6 6 6 6 4 3 5 9 8 8 9 9 9 9 9
17 17 16 15 13 11 9 8 8 7 8 8 7 8 8 6 6 5 4 3 4 4 5 5 4 4 5 6 6 6 6 5 5 4 4 9 8 7 8 9 9 9 9
15 15 14 14 13 11 9 8 7 7 6 7 7 8 9 6 5 5 5 4 4 4 3 4 4 4 5 4 5 5 5 5 4 4 3 7 8 7 7 7 8 8 8
14 14 13 13 13 12 11 10 7 7 7 6 6 7 8 7 6 5 5 5 4 4 3 4 4 4 4 4 4 3 3 3 2 3 3 3 5 7 6 5 5 5 6
12 13 13 12 13 12 10 9 7 7 7 6 5 5 7 7 6 6 5 5 4 4 4 4 4 4 4 4 3 3 2 2 2 2 3 3 2 2 5 4 3 3 4
11 12 13 13 13 12 11 8 7 5 5 5 4 4 5 6 6 6 5 4 4 4 4 4 3 3 3 3 3 2 2 2 2 2 1 2 1 1 1 6 5 4 2
10 11 12 12 12 12 10 8 6 6 5 4 3 3 4 4 5 5 4 4 4 4 3 3 2 1 2 2 3 1 1 1 1 1 1 1 1 1 1 1 3 4 4
9 10 11 12 12 10 8 9 8 6 5 4 3 2 3 3 3 3 3 3 3 3 3 3 2 3 2 2 3 2 2 1 0 0 0 0 1 1 1 1 1 1 2
7 9 10 10 11 10 8 7 6 6 5 4 3 3 1 0 0 1 2 2 2 2 2 1 1 2 1 1 2 3 3 4 3 1 1 1 1 1 1 1 1 1 2
3 5 7 9 10 10 10 7 6 5 4 3 3 3 2 2 2 2 1 0 1 1 1 1 2 3 2 1 1 2 3 3 2 3 1 1 1 1 1 1 2 2 1
3 2 4 5 7 8 9 9 10 7 6 4 4 3 4 4 4 4 3 4 4 3 3 2 3 2 1 1 1 1 2 3 2 1 2 2 1 1 1 1 1 1 1
6 5 4 5 5 6 7 8 8 6 5 5 5 7 7 6 7 8 7 7 7 6 6 6 6 6 4 3 2 2 2 2 2 2 1 1 2 1 0 1 1 1 1
9 8 7 8 7 6 7 7 8 9 8 9 8 8 7 6 7 10 9 9 9 8 8 8 8 9 7 6 5 3 3 2 2 2 2 2 2 1 1 1 2 2 2
Wind_Direction
158 146 141 150 150 148 150 151 148 148 147 146 145 144 143 141 137 134 130 126 122 118 114 112 111 112 112 111 111 112 112 114 115 115 115 114 114 116 120 133 150 117 119
149 144 143 149 149 148 148 150 148 147 147 146 145 145 144 142 138 135 132 129 125 121 119 117 116 116 116 116 116 116 117 120 124 123 126 124 120 120 127 138 85 111 129
146 144 150 149 148 146 146 147 147 146 147 146 146 145 144 142 139 136 134 131 128 126 123 122 121 120 120 119 120 120 122 126 127 138 160 141 126 128 129 115 103 123 132
145 148 155 147 148 145 144 145 146 147 147 146 146 146 145 143 141 139 137 135 132 129 128 126 124 123 122 122 122 122 123 126 135 180 176 127 131 130 137 130 129 133 135
146 151 146 151 149 146 145 145 146 148 148 148 147 147 145 145 143 141 141 138 135 133 131 129 127 125 125 123 121 121 123 132 167 222 126 126 120 133 143 141 142 142 140
150 153 147 156 151 149 148 147 147 148 148 148 147 146 145 145 144 144 144 141 138 135 132 130 129 128 128 128 127 129 135 159 212 165 119 134 126 139 151 151 151 149 148
154 153 151 157 153 153 153 150 149 148 147 146 146 145 145 146 145 144 143 141 139 136 133 131 131 129 130 134 136 140 156 204 245 136 140 144 116 140 158 160 158 158 158
155 153 149 157 158 158 158 154 151 149 147 146 145 145 145 144 143 144 143 141 139 137 135 134 135 133 133 137 142 151 178 239 227 160 160 131 114 152 165 166 166 167 166
158 155 155 163 164 163 160 157 154 150 148 146 145 145 145 145 146 146 143 141 139 139 140 140 141 140 139 138 142 159 195 253 258 177 173 140 134 168 175 174 176 177 178
162 162 161 166 167 170 169 165 160 156 153 150 150 151 150 150 153 152 157 144 146 146 146 147 149 150 152 153 158 174 210 242 241 195 179 134 149 179 183 181 184 185 186
167 168 167 166 169 175 172 164 168 164 158 158 160 158 167 177 169 172 154 145 156 155 154 156 160 166 183 180 183 198 227 239 220 220 179 124 162 188 192 189 191 193 194
171 173 172 170 171 176 171 164 177 177 169 184 173 174 189 178 179 173 130 158 166 167 169 170 175 195 224 201 179 199 228 237 246 209 144 135 176 196 200 198 199 199 201
172 174 175 174 177 177 173 172 178 181 173 189 180 182 187 180 182 185 169 172 183 189 195 172 197 214 221 233 237 219 237 245 240 226 146 150 183 200 202 200 200 201 203
174 177 178 174 180 186 180 176 181 182 179 186 179 191 182 192 195 193 203 192 193 200 204 218 219 213 235 229 238 244 228 237 241 238 136 155 183 198 202 199 198 202 205
176 178 180 178 176 184 184 185 187 188 185 185 181 193 193 194 200 193 205 214 226 212 202 224 232 219 235 226 231 240 248 244 250 245 154 157 177 193 196 198 200 203 207
177 179 176 181 174 182 185 190 186 190 189 191 191 190 199 206 199 203 206 209 227 229 236 239 233 230 241 248 239 237 251 248 232 248 224 163 171 184 197 202 201 204 208
178 177 177 183 176 184 189 192 187 191 189 195 191 191 200 209 200 212 218 216 222 223 220 237 235 238 239 235 238 242 243 250 243 239 244 225 180 171 181 191 195 197 204
181 177 180 184 180 185 191 192 191 193 188 193 191 193 203 214 210 219 226 225 220 224 221 225 235 236 236 241 231 231 228 215 225 236 245 239 233 181 156 145 149 172 194
182 179 181 187 183 185 184 185 190 184 191 191 192 198 201 213 220 229 238 235 226 230 228 238 226 247 242 247 241 217 233 225 206 221 258 268 275 256 197 134 132 118 124
178 180 181 184 184 181 179 179 183 182 185 186 183 188 199 214 223 234 241 237 236 234 229 230 233 256 275 262 257 231 252 248 234 179 229 223 252 240 255 162 174 142 117
174 177 180 183 179 180 182 181 179 178 175 169 163 159 189 211 219 232 250 239 237 233 228 210 214 218 243 257 239 227 211 206 190 206 211 223 147 46 24 22 326 318 152
171 175 178 181 178 182 180 178 172 162 163 152 118 90 72 89 167 219 236 228 221 215 200 184 189 208 187 289 269 246 230 204 189 121 141 129 78 113 107 73 52 24 335
147 173 182 183 180 180 170 164 154 147 144 147 134 110 58 44 55 54 89 111 93 129 133 148 182 184 171 136 342 284 264 252 175 156 98 81 77 64 84 87 75 58 34
49 125 153 168 169 169 168 169 165 161 161 147 129 112 78 56 60 58 63 70 67 65 70 67 60 59 115 153 114 23 4 1 303 206 165 140 91 64 41 11 68 73 40
42 59 86 108 125 141 150 153 149 142 134 123 117 104 85 66 60 59 60 67 65 64 64 63 64 61 59 61 59 42 45 35 331 287 249 196 211 193 167 285 336 339 3
45 52 64 78 82 93 106 114 124 127 129 120 113 102 87 72 63 60 65 66 67 65 62 61 63 65 64 64 58 48 38 21 349 314 293 266 257 225 230 285 269 278 301